User: anonymous   Login
Location: Bull Meadow Creek
(37.8674°N, 120.0624°W)
Time: 17:12:33
(UTC+00:00)
Language:

Tiangong - Orbit

View from above orbital plane
View from above orbital plane
View from above satellite
View from above satellite

Ground track
Ground track

The orbit data is extracted from the following two-line orbital elements,

1 48274U 21035A   24262.31659931  .00037630  00000-0  38457-3 0  9998
2 48274  41.4677 235.2670 0002871 178.9104 181.1743 15.64285295193666
Epoch (UTC): 18 September 2024 07:35:54
Eccentricity: 0.0002871
inclination: 41.4677°
perigee height: 373 km
apogee height: 377 km
right ascension of ascending node: 235.2670°
argument of perigee: 178.9104°
revolutions per day: 15.64285295
mean anomaly at epoch: 181.1743°
orbit number at epoch: 19366

The dashed part of the orbit path shows where the satellite is in the earth's shadow,  

DLR